Satellite: NOAA-12
Catalog number: 21263
Epoch time: 14009.17413966
Element set: 120
Inclination: 098.6796 deg
RA of node: 037.7354 deg
Eccentricity: 0.0013252
Arg of perigee: 344.8796 deg
Mean anomaly: 056.5312 deg
Mean motion: 14.25616458 rev/day
Decay rate: 1.99e-06 rev/day^2
Epoch rev: 17790
Checksum: 316
Satellite: MET-3/5
Catalog number: 21655
Epoch time: 14008.81760571
Element set: 875
Inclination: 082.5578 deg
RA of node: 109.0290 deg
Eccentricity: 0.0012483
Arg of perigee: 339.4297 deg
Mean anomaly: 020.6321 deg
Mean motion: 13.17054041 rev/day
Decay rate: -6.8e-07 rev/day^2
Epoch rev: 7700
Checksum: 286
Satellite: MET-2/21
Catalog number: 22782
Epoch time: 14009.85622073
Element set: 946
Inclination: 082.5517 deg
RA of node: 298.9297 deg
Eccentricity: 0.0021960
Arg of perigee: 352.9162 deg
Mean anomaly: 067.7660 deg
Mean motion: 13.83723169 rev/day
Decay rate: 1.20e-06 rev/day^2
Epoch rev: 2822
Checksum: 314
Satellite: OKEAN-4
Catalog number: 23317
Epoch time: 14009.85241898
Element set: 425
Inclination: 082.5367 deg
RA of node: 216.3038 deg
Eccentricity: 0.0019556
Arg of perigee: 262.4870 deg
Mean anomaly: 272.2603 deg
Mean motion: 14.84964445 rev/day
Decay rate: 2.331e-05 rev/day^2
Epoch rev: 3960
Checksum: 306
Satellite: NOAA-14
Catalog number: 23455
Epoch time: 14009.20826551
Element set: 598
Inclination: 098.7896 deg
RA of node: 095.4064 deg
Eccentricity: 0.0010446
Arg of perigee: 129.9146 deg
Mean anomaly: 283.1466 deg
Mean motion: 14.13941741 rev/day
Decay rate: 1.57e-06 rev/day^2
Epoch rev: 98148
Checksum: 329
Satellite: NOAA-15
Catalog number: 25338
Epoch time: 14009.73965242
Element set: 30
Inclination: 098.7415 deg
RA of node: 004.0087 deg
Eccentricity: 0.0009768
Arg of perigee: 246.7659 deg
Mean anomaly: 113.2982 deg
Mean motion: 14.25323929 rev/day
Decay rate: 2.68e-06 rev/day^2
Epoch rev: 81427
Checksum: 318
Satellite: RESURS
Catalog number: 25394
Epoch time: 14009.88767113
Element set: 561
Inclination: 098.3912 deg
RA of node: 341.1140 deg
Eccentricity: 0.0001718
Arg of perigee: 048.9471 deg
Mean anomaly: 004.0415 deg
Mean motion: 14.24360115 rev/day
Decay rate: 1.17e-06 rev/day^2
Epoch rev: 80578
Checksum: 273
Satellite: FENGYUN1
Catalog number: 25730
Epoch time: 14009.13895987
Element set: 53
Inclination: 098.8995 deg
RA of node: 331.4073 deg
Eccentricity: 0.0026232
Arg of perigee: 193.1888 deg
Mean anomaly: 232.0452 deg
Mean motion: 14.11208972 rev/day
Decay rate: 3.175e-05 rev/day^2
Epoch rev: 75508
Checksum: 314
Satellite: OKEAN-0
Catalog number: 25860
Epoch time: 14009.10447698
Element set: 143
Inclination: 098.0210 deg
RA of node: 334.1623 deg
Eccentricity: 0.0001394
Arg of perigee: 129.7720 deg
Mean anomaly: 284.1702 deg
Mean motion: 14.74897854 rev/day
Decay rate: 1.279e-05 rev/day^2
Epoch rev: 77870
Checksum: 307
Satellite: NOAA-16
Catalog number: 26536
Epoch time: 14009.82086269
Element set: 517
Inclination: 099.0148 deg
RA of node: 069.3293 deg
Eccentricity: 0.0009795
Arg of perigee: 273.2621 deg
Mean anomaly: 086.7902 deg
Mean motion: 14.12970913 rev/day
Decay rate: 2.96e-06 rev/day^2
Epoch rev: 68575
Checksum: 340
Satellite: NOAA-17
Catalog number: 27453
Epoch time: 14009.82523249
Element set: 423
Inclination: 098.3114 deg
RA of node: 017.9157 deg
Eccentricity: 0.0010533
Arg of perigee: 281.0986 deg
Mean anomaly: 078.9497 deg
Mean motion: 14.24671772 rev/day
Decay rate: 2.54e-06 rev/day^2
Epoch rev: 60014
Checksum: 306
Satellite: NOAA-18
Catalog number: 28654
Epoch time: 14009.57153097
Element set: 910
Inclination: 099.1271 deg
RA of node: 346.0566 deg
Eccentricity: 0.0014209
Arg of perigee: 353.0155 deg
Mean anomaly: 007.1300 deg
Mean motion: 14.11923921 rev/day
Decay rate: 2.07e-06 rev/day^2
Epoch rev: 44521
Checksum: 271
Satellite: NOAA-19
Catalog number: 33591
Epoch time: 14009.16330642
Element set: 81
Inclination: 098.9283 deg
RA of node: 314.8330 deg
Eccentricity: 0.0013696
Arg of perigee: 204.7145 deg
Mean anomaly: 270.3580 deg
Mean motion: 14.11619542 rev/day
Decay rate: 3.55e-06 rev/day^2
Epoch rev: 25355
Checksum: 290
/EX
SB KEPS @ AMSAT $ORB14009.M
Orbital Elements 14009.MISC
HR AMSAT ORBITAL ELEMENTS FOR MANNED AND MISCELLANEOUS SATELLITES
FROM WA5QGD FORT WORTH,TX January 9, 2014
BID: ORB14009.M
TO ALL RADIO AMATEURS BT
Satellite: HUBBLE
Catalog number: 20580
Epoch time: 14008.45095572
Element set: 412
Inclination: 028.4717 deg
RA of node: 006.4867 deg
Eccentricity: 0.0003289
Arg of perigee: 024.1519 deg
Mean anomaly: 108.2689 deg
Mean motion: 15.04478908 rev/day
Decay rate: 3.451e-05 rev/day^2
Epoch rev: 10063
Checksum: 287
Satellite: ISS
Catalog number: 25544
Epoch time: 14009.93003620
Element set: 430
Inclination: 051.6494 deg
RA of node: 163.9902 deg
Eccentricity: 0.0005817
Arg of perigee: 011.7555 deg
Mean anomaly: 074.7508 deg
Mean motion: 15.50285831 rev/day
Decay rate: 1.3881e-04 rev/day^2
Epoch rev: 86677
Checksum: 299
Satellite: CO-58
Catalog number: 28895
Epoch time: 14009.05381394
Element set: 666
Inclination: 097.8469 deg
RA of node: 219.0895 deg
Eccentricity: 0.0018315
Arg of perigee: 149.6332 deg
Mean anomaly: 210.5935 deg
Mean motion: 14.61480158 rev/day
Decay rate: 1.613e-05 rev/day^2
Epoch rev: 43700
Checksum: 330
Satellite: FALCON
Catalog number: 30776
Epoch time: 14009.47991029
Element set: 776
Inclination: 035.4316 deg
RA of node: 014.1070 deg
Eccentricity: 0.0002349
Arg of perigee: 256.8907 deg
Mean anomaly: 236.9791 deg
Mean motion: 15.13131490 rev/day
Decay rate: 1.1504e-04 rev/day^2
Epoch rev: 37665
Checksum: 298
Satellite: MAST
Catalog number: 31126
Epoch time: 14008.81856750
Element set: 943
Inclination: 097.8982 deg
RA of node: 358.2114 deg
Eccentricity: 0.0093942
Arg of perigee: 131.0803 deg
Mean anomaly: 347.9077 deg
Mean motion: 14.54890442 rev/day
Decay rate: 1.117e-05 rev/day^2
Epoch rev: 35721
Checksum: 306
Satellite: CAPE1
Catalog number: 31130
Epoch time: 14009.19881864
Element set: 949
Inclination: 097.9181 deg
RA of node: 355.0526 deg
Eccentricity: 0.0100880
Arg of perigee: 146.7234 deg
Mean anomaly: 214.0361 deg
Mean motion: 14.53919010 rev/day
Decay rate: 1.759e-05 rev/day^2
Epoch rev: 35670
Checksum: 296
Satellite: COMPASS
Catalog number: 32787
Epoch time: 14009.12271946
Element set: 826
Inclination: 097.7262 deg
RA of node: 067.1550 deg
Eccentricity: 0.0013916
Arg of perigee: 351.6676 deg
Mean anomaly: 008.4307 deg
Mean motion: 14.86606471 rev/day
Decay rate: 3.697e-05 rev/day^2
Epoch rev: 30854
Checksum: 318
Satellite: AAUSAT2
Catalog number: 32788
Epoch time: 14009.80155352
Element set: 811
Inclination: 097.7270 deg
RA of node: 068.6269 deg
Eccentricity: 0.0013336
Arg of perigee: 348.3291 deg
Mean anomaly: 011.7615 deg
Mean motion: 14.87178980 rev/day
Decay rate: 6.366e-05 rev/day^2
Epoch rev: 30869
Checksum: 327
Satellite: DO-64
Catalog number: 32789
Epoch time: 14009.82233456
Element set: 847
Inclination: 097.7441 deg
RA of node: 073.7850 deg
Eccentricity: 0.0012393
Arg of perigee: 337.3200 deg
Mean anomaly: 086.0317 deg
Mean motion: 14.90722907 rev/day
Decay rate: 1.0740e-04 rev/day^2
Epoch rev: 30888
Checksum: 316
Satellite: CO-66
Catalog number: 32791
Epoch time: 14009.82484532
Element set: 806
Inclination: 097.7260 deg
RA of node: 066.9007 deg
Eccentricity: 0.0014393
Arg of perigee: 351.8294 deg
Mean anomaly: 008.2685 deg
Mean motion: 14.85531241 rev/day
Decay rate: 5.207e-05 rev/day^2
Epoch rev: 30853
Checksum: 314
Satellite: RS-30
Catalog number: 32953
Epoch time: 14009.75207965
Element set: 544
Inclination: 082.5054 deg
RA of node: 299.7311 deg
Eccentricity: 0.0018850
Arg of perigee: 138.8443 deg
Mean anomaly: 221.4071 deg
Mean motion: 12.43041581 rev/day
Decay rate: 1.0e-07 rev/day^2
Epoch rev: 25557
Checksum: 284
Satellite: METEOR-M
Catalog number: 35865
Epoch time: 14009.75759016
Element set: 152
Inclination: 098.5743 deg
RA of node: 061.7990 deg
Eccentricity: 0.0002148
Arg of perigee: 180.6901 deg
Mean anomaly: 179.4272 deg
Mean motion: 14.21904540 rev/day
Decay rate: 1.2e-07 rev/day^2
Epoch rev: 22382
Checksum: 290
Satellite: RS-38
Catalog number: 35869
Epoch time: 14009.75404632
Element set: 103
Inclination: 098.5671 deg
RA of node: 061.6446 deg
Eccentricity: 0.0004284
Arg of perigee: 186.5083 deg
Mean anomaly: 173.6034 deg
Mean motion: 14.22171205 rev/day
Decay rate: 8.7e-07 rev/day^2
Epoch rev: 22385
Checksum: 298
Satellite: JUGNU
Catalog number: 37839
Epoch time: 14008.64446913
Element set: 538
Inclination: 019.9614 deg
RA of node: 141.8173 deg
Eccentricity: 0.0019298
Arg of perigee: 026.1096 deg
Mean anomaly: 088.7904 deg
Mean motion: 14.12229870 rev/day
Decay rate: 5.07e-06 rev/day^2
Epoch rev: 11597
Checksum: 320
Satellite: SRMSAT
Catalog number: 37841
Epoch time: 14008.77805159
Element set: 538
Inclination: 019.9717 deg
RA of node: 157.1428 deg
Eccentricity: 0.0012234
Arg of perigee: 334.1189 deg
Mean anomaly: 165.9120 deg
Mean motion: 14.10286747 rev/day
Decay rate: 5.02e-06 rev/day^2
Epoch rev: 11582
Checksum: 294
Satellite: RAX-2
Catalog number: 37853
Epoch time: 14009.85866513
Element set: 693
Inclination: 101.7065 deg
RA of node: 324.5255 deg
Eccentricity: 0.0226619
Arg of perigee: 153.7273 deg
Mean anomaly: 270.8233 deg
Mean motion: 14.86230687 rev/day
Decay rate: 7.302e-05 rev/day^2
Epoch rev: 11911
Checksum: 306
Satellite: AUBIESAT
Catalog number: 37854
Epoch time: 14009.82952464
Element set: 677
Inclination: 101.7111 deg
RA of node: 325.8365 deg
Eccentricity: 0.0225645
Arg of perigee: 151.7085 deg
Mean anomaly: 240.5946 deg
Mean motion: 14.87207076 rev/day
Decay rate: 8.905e-05 rev/day^2
Epoch rev: 11914
Checksum: 314
